TimeCST,TemperatureF,Dew PointF,Humidity,Sea Level PressureIn,VisibilityMPH,Wind Direction,Wind SpeedMPH,Gust SpeedMPH,PrecipitationIn,Events,Conditions,WindDirDegrees,DateUTC
12:53 AM,30.0,25.0,82,30.21,10.0,NW,6.9,-,N/A,,Overcast,320,2013-03-01 06:53:00
1:53 AM,30.0,24.1,79,30.22,10.0,NNW,6.9,-,N/A,,Overcast,340,2013-03-01 07:53:00
2:53 AM,30.0,24.1,79,30.20,10.0,North,-9999.0,-,N/A,,Overcast,0,2013-03-01 08:53:00
3:53 AM,30.0,24.1,79,30.20,10.0,WNW,5.8,-,N/A,,Overcast,300,2013-03-01 09:53:00
4:51 AM,30.2,24.8,80,30.18,10.0,NW,4.6,-,N/A,,Overcast,310,2013-03-01 10:51:00
4:53 AM,30.0,25.0,82,30.20,10.0,WNW,5.8,-,N/A,,Overcast,300,2013-03-01 10:53:00
5:53 AM,30.0,25.0,82,30.21,10.0,NW,6.9,-,N/A,,Overcast,310,2013-03-01 11:53:00
6:53 AM,28.9,21.9,75,30.22,10.0,NNW,13.8,-,N/A,,Overcast,330,2013-03-01 12:53:00
7:53 AM,28.9,21.0,72,30.24,10.0,NNW,10.4,-,N/A,,Overcast,330,2013-03-01 13:53:00
8:25 AM,28.4,21.2,74,30.22,10.0,NNW,13.8,19.6,N/A,,Overcast,330,2013-03-01 14:25:00
8:53 AM,28.0,21.0,75,30.25,10.0,NNW,13.8,19.6,N/A,,Overcast,340,2013-03-01 14:53:00
9:47 AM,-9999,-9999,N/A,30.22,10.0,NW,12.7,-,N/A,,Overcast,320,2013-03-01 15:47:00
9:53 AM,28.9,21.9,75,30.26,10.0,NNW,11.5,-,N/A,,Overcast,340,2013-03-01 15:53:00
10:53 AM,30.0,21.9,72,30.27,10.0,NNW,10.4,-,N/A,,Overcast,340,2013-03-01 16:53:00
11:53 AM,28.9,21.0,72,30.28,8.0,NNW,12.7,-,N/A,,Overcast,340,2013-03-01 17:53:00
12:19 PM,28.4,19.4,69,30.25,9.0,NNW,11.5,-,N/A,,Overcast,330,2013-03-01 18:19:00
12:29 PM,28.4,21.2,74,30.25,6.0,NNW,15.0,-,N/A,,Haze,330,2013-03-01 18:29:00
12:53 PM,28.0,21.0,75,30.27,9.0,NW,12.7,-,N/A,,Overcast,320,2013-03-01 18:53:00
1:53 PM,28.9,21.0,72,30.25,10.0,WNW,13.8,-,N/A,,Overcast,300,2013-03-01 19:53:00
2:53 PM,28.9,21.0,72,30.25,7.0,NW,15.0,-,0.00,Snow,Light Snow,310,2013-03-01 20:53:00
3:00 PM,28.4,21.2,74,30.23,8.0,NW,12.7,-,0.00,,Overcast,320,2013-03-01 21:00:00
3:53 PM,28.0,21.0,75,30.26,7.0,NW,12.7,-,0.00,Snow,Light Snow,320,2013-03-01 21:53:00
4:53 PM,28.9,21.0,72,30.26,10.0,NW,10.4,-,0.00,,Overcast,320,2013-03-01 22:53:00
5:53 PM,28.0,21.0,75,30.27,9.0,NNW,9.2,-,0.00,,Overcast,330,2013-03-01 23:53:00
6:53 PM,27.0,21.9,81,30.29,10.0,NW,9.2,-,0.00,,Overcast,320,2013-03-02 00:53:00
7:53 PM,27.0,21.9,81,30.30,10.0,NW,8.1,-,0.00,,Overcast,310,2013-03-02 01:53:00
8:45 PM,26.6,21.2,80,30.28,10.0,NW,8.1,-,N/A,,Overcast,320,2013-03-02 02:45:00
8:53 PM,27.0,21.9,81,30.31,10.0,NNW,9.2,-,N/A,,Overcast,330,2013-03-02 02:53:00
9:53 PM,27.0,21.9,81,30.32,5.0,NNW,8.1,-,0.00,Snow,Light Snow,340,2013-03-02 03:53:00
10:53 PM,27.0,21.0,78,30.32,9.0,NNW,8.1,-,0.00,,Overcast,340,2013-03-02 04:53:00
11:53 PM,26.1,21.0,81,30.32,10.0,North,9.2,-,N/A,,Overcast,350,2013-03-02 05:53:00